CRUISE,DATE,TIME,LAT,LONG,ATM_PRE,FCO2_WAT,EQ_TMP,SST,SSS
ARGAU-4,2/27/2004,1:15,-54.17,-65.18,1007.6,352.1,10.00,9.80,32.76
ARGAU-4,2/27/2004,1:25,-54.13,-65.21,1007.4,352.7,9.99,9.77,32.79
ARGAU-4,2/27/2004,1:35,-54.09,-65.25,1007.5,352.2,10.06,9.69,32.84
ARGAU-4,2/27/2004,1:45,-54.05,-65.29,1007.4,356.7,9.89,9.55,33.00
ARGAU-4,2/27/2004,1:55,-54.01,-65.32,1007.5,358.8,9.96,9.65,33.06
ARGAU-4,2/27/2004,2:05,-53.97,-65.36,1007.6,360.0,9.95,9.61,33.05
ARGAU-4,2/27/2004,2:25,-53.89,-65.43,1007.4,371.0,9.83,9.42,33.24
ARGAU-4,2/27/2004,2:35,-53.85,-65.47,1007.4,357.6,9.98,9.55,33.14
ARGAU-4,2/27/2004,2:45,-53.81,-65.5,1007.3,357.5,9.90,9.57,33.16
ARGAU-4,2/27/2004,2:55,-53.78,-65.53,1007.2,363.7,9.85,9.67,33.14
ARGAU-4,2/27/2004,3:05,-53.73,-65.57,1007.3,364.1,10.02,9.70,33.07
ARGAU-4,2/27/2004,3:15,-53.69,-65.6,1007.3,362.9,10.09,9.81,33.06
ARGAU-4,2/27/2004,3:35,-53.61,-65.67,1007.3,362.8,10.15,9.87,33.00
ARGAU-4,2/27/2004,3:45,-53.57,-65.69,1007.3,367.2,10.25,9.95,32.96
ARGAU-4,2/27/2004,3:55,-53.53,-65.73,1007.3,359.7,10.24,9.85,32.90
ARGAU-4,2/27/2004,4:06,-53.49,-65.76,1007.4,354.1,10.45,9.88,32.89
ARGAU-4,2/27/2004,4:16,-53.45,-65.78,1007.5,354.2,10.37,9.90,32.89
ARGAU-4,2/27/2004,4:26,-53.41,-65.82,1007.6,352.2,10.39,9.81,32.93
ARGAU-4,2/27/2004,4:46,-53.33,-65.87,1007.7,343.1,10.50,10.05,32.87
ARGAU-4,2/27/2004,4:56,-53.29,-65.9,1007.6,341.7,10.49,10.05,32.88
ARGAU-4,2/27/2004,5:06,-53.26,-65.93,1007.8,348.3,10.44,10.05,32.91
ARGAU-4,2/27/2004,5:16,-53.22,-65.96,1007.8,347.4,10.50,10.04,32.96
ARGAU-4,2/27/2004,5:26,-53.18,-65.99,1007.7,343.3,10.58,10.20,32.94
ARGAU-4,2/27/2004,5:36,-53.14,-66.02,1007.6,332.5,10.60,9.95,32.93
ARGAU-4,2/27/2004,5:56,-53.06,-66.08,1007.8,343.0,10.52,10.19,32.97
ARGAU-4,2/27/2004,6:06,-53.03,-66.11,1007.7,334.0,10.64,10.35,32.93
ARGAU-4,2/27/2004,6:16,-52.99,-66.13,1007.9,325.6,10.75,10.17,32.92
ARGAU-4,2/27/2004,6:26,-52.95,-66.16,1008.0,346.9,10.44,9.93,32.92
ARGAU-4,2/27/2004,6:36,-52.91,-66.19,1008.2,366.8,10.38,9.86,32.93
ARGAU-4,2/27/2004,6:46,-52.88,-66.22,1008.2,356.7,10.52,10.12,32.93
ARGAU-4,2/27/2004,7:06,-52.8,-66.28,1008.4,323.6,10.60,10.18,32.97
ARGAU-4,2/27/2004,7:16,-52.76,-66.3,1008.5,323.7,10.60,10.32,32.99
ARGAU-4,2/27/2004,7:26,-52.73,-66.32,1008.5,332.1,10.59,10.13,32.96
ARGAU-4,2/27/2004,7:36,-52.69,-66.35,1008.7,353.0,10.38,9.93,32.95
ARGAU-4,2/27/2004,7:46,-52.65,-66.38,1008.7,365.8,10.46,10.02,32.97
ARGAU-4,2/27/2004,7:56,-52.62,-66.4,1008.9,355.7,10.47,10.18,32.95
ARGAU-4,2/27/2004,8:43,-52.45,-66.53,1009.5,368.5,10.64,10.30,32.95
ARGAU-4,2/27/2004,8:53,-52.41,-66.55,1009.6,361.0,10.75,10.23,32.93
ARGAU-4,2/27/2004,9:03,-52.37,-66.58,1009.7,359.2,10.76,10.41,32.94
ARGAU-4,2/27/2004,9:13,-52.33,-66.61,1010.0,354.6,10.71,10.10,32.93
ARGAU-4,2/27/2004,9:23,-52.3,-66.63,1010.0,373.2,10.56,10.08,32.94
ARGAU-4,2/27/2004,9:32,-52.26,-66.66,1010.2,380.1,10.45,10.02,32.94
ARGAU-4,2/27/2004,9:52,-52.19,-66.72,1010.4,397.0,10.34,9.99,32.93
ARGAU-4,2/27/2004,10:02,-52.15,-66.74,1010.4,397.7,10.41,9.98,32.93
ARGAU-4,2/27/2004,10:12,-52.11,-66.77,1010.6,395.4,10.41,10.02,32.94
ARGAU-4,2/27/2004,10:22,-52.08,-66.8,1010.7,397.0,10.40,10.18,32.93
ARGAU-4,2/27/2004,10:32,-52.04,-66.83,1011.0,376.9,10.71,10.40,32.96
ARGAU-4,2/27/2004,10:42,-52,-66.86,1011.2,359.8,10.79,10.34,32.96
ARGAU-4,2/27/2004,11:02,-51.93,-66.91,1011.3,359.2,10.61,10.31,32.98
ARGAU-4,2/27/2004,11:12,-51.89,-66.94,1011.4,348.0,10.86,10.35,32.98
ARGAU-4,2/27/2004,11:23,-51.85,-66.97,1011.5,322.3,11.10,10.79,32.98
ARGAU-4,2/27/2004,11:33,-51.82,-66.99,1011.7,312.1,11.25,10.88,32.97
ARGAU-4,2/27/2004,11:43,-51.78,-67.02,1011.7,309.5,11.26,10.91,32.94
ARGAU-4,2/27/2004,11:53,-51.74,-67.05,1011.8,306.4,11.49,11.21,32.88
ARGAU-4,2/27/2004,12:13,-51.67,-67.11,1011.7,282.6,12.08,11.80,32.66
ARGAU-4,2/27/2004,12:23,-51.63,-67.14,1011.9,279.0,12.10,11.65,32.59
ARGAU-4,2/27/2004,12:33,-51.59,-67.17,1012.0,287.2,12.13,11.68,32.56
ARGAU-4,2/27/2004,12:43,-51.55,-67.2,1012.2,286.5,12.10,11.63,32.55
ARGAU-4,2/27/2004,12:53,-51.51,-67.23,1012.1,287.3,12.07,11.62,32.54
ARGAU-4,2/27/2004,13:03,-51.48,-67.26,1012.4,286.4,12.15,11.76,32.55
ARGAU-4,2/27/2004,13:23,-51.4,-67.32,1012.7,284.0,12.29,11.92,32.48
ARGAU-4,2/27/2004,13:33,-51.36,-67.35,1012.6,285.4,12.38,11.94,32.49
ARGAU-4,2/27/2004,13:43,-51.32,-67.38,1012.5,284.4,12.50,12.08,32.49
ARGAU-4,2/27/2004,13:53,-51.28,-67.41,1012.7,289.8,12.72,12.46,32.57
ARGAU-4,2/27/2004,14:03,-51.24,-67.44,1012.7,297.9,13.01,12.60,32.67
ARGAU-4,2/27/2004,14:13,-51.2,-67.47,1012.8,297.8,12.92,12.57,32.66
ARGAU-4,2/27/2004,14:33,-51.12,-67.53,1012.7,304.0,13.13,12.67,32.51
ARGAU-4,2/27/2004,14:43,-51.09,-67.56,1012.6,311.0,13.31,13.09,32.63
ARGAU-4,2/27/2004,14:53,-51.05,-67.58,1012.8,311.4,13.64,13.16,32.79
ARGAU-4,2/27/2004,15:03,-51,-67.61,1012.7,313.2,13.66,13.19,32.78
ARGAU-4,2/27/2004,15:13,-50.97,-67.64,1012.6,311.1,13.56,13.22,32.78
ARGAU-4,2/27/2004,15:23,-50.92,-67.67,1012.7,308.7,13.64,13.16,32.77
ARGAU-4,2/27/2004,16:10,-50.75,-67.59,1012.6,304.5,13.35,12.86,32.78
ARGAU-4,2/27/2004,16:20,-50.72,-67.56,1012.5,305.9,13.39,13.02,32.85
ARGAU-4,2/27/2004,16:30,-50.68,-67.52,1012.4,298.4,13.78,13.33,33.05
ARGAU-4,2/27/2004,16:40,-50.64,-67.49,1012.2,295.4,13.80,13.39,33.03
ARGAU-4,2/27/2004,16:50,-50.61,-67.46,1012.1,294.5,13.60,13.19,33.00
ARGAU-4,2/27/2004,17:00,-50.57,-67.42,1012.0,293.3,13.50,12.93,32.97
ARGAU-4,2/27/2004,17:20,-50.5,-67.36,1011.8,300.1,13.20,12.85,32.94
ARGAU-4,2/27/2004,17:30,-50.46,-67.32,1011.6,297.5,13.43,13.11,32.94
ARGAU-4,2/27/2004,17:40,-50.43,-67.29,1011.5,298.1,13.63,13.26,32.94
ARGAU-4,2/27/2004,17:50,-50.39,-67.25,1011.5,297.2,13.38,12.85,32.95
ARGAU-4,2/27/2004,18:00,-50.35,-67.21,1011.5,299.5,13.29,12.71,32.97
ARGAU-4,2/27/2004,18:11,-50.31,-67.18,1011.6,302.5,13.04,12.52,33.00
ARGAU-4,2/27/2004,18:30,-50.24,-67.12,1011.5,317.1,13.16,13.00,33.12
ARGAU-4,2/27/2004,18:40,-50.2,-67.09,1011.3,294.7,14.01,13.60,33.17
ARGAU-4,2/27/2004,18:50,-50.16,-67.05,1011.4,289.8,13.85,13.60,33.16
ARGAU-4,2/27/2004,19:01,-50.12,-67.02,1011.2,302.1,13.91,13.63,33.16
ARGAU-4,2/27/2004,19:11,-50.08,-66.99,1011.0,302.8,13.95,13.57,33.16
ARGAU-4,2/27/2004,19:21,-50.05,-66.95,1010.8,289.6,14.17,13.83,33.15
ARGAU-4,2/27/2004,19:40,-49.99,-66.9,1010.6,287.9,14.28,13.88,33.16
ARGAU-4,2/27/2004,19:50,-49.95,-66.87,1010.6,297.7,14.31,14.05,33.22
ARGAU-4,2/27/2004,20:00,-49.91,-66.84,1010.7,294.6,14.49,14.03,33.21
ARGAU-4,2/27/2004,20:10,-49.87,-66.8,1010.7,291.5,14.56,14.17,33.21
ARGAU-4,2/27/2004,20:20,-49.83,-66.77,1010.7,291.8,14.55,14.13,33.23
ARGAU-4,2/27/2004,20:31,-49.79,-66.73,1010.4,293.9,14.60,14.26,33.22
ARGAU-4,2/27/2004,20:51,-49.72,-66.67,1010.5,300.5,14.55,14.20,33.22
ARGAU-4,2/27/2004,21:01,-49.67,-66.63,1010.3,306.7,14.82,14.34,33.26
ARGAU-4,2/27/2004,21:11,-49.63,-66.6,1010.3,288.0,14.70,14.37,33.27
ARGAU-4,2/27/2004,21:21,-49.6,-66.56,1010.3,252.7,14.85,14.51,33.26
ARGAU-4,2/27/2004,21:31,-49.56,-66.53,1010.3,257.6,14.72,14.49,33.20
ARGAU-4,2/27/2004,21:41,-49.52,-66.5,1010.0,242.9,14.88,14.37,33.23
ARGAU-4,2/27/2004,22:13,-49.39,-66.39,1009.7,282.5,14.94,14.54,33.25
ARGAU-4,2/27/2004,22:23,-49.36,-66.35,1009.7,280.5,14.99,14.56,33.22
ARGAU-4,2/27/2004,22:34,-49.32,-66.32,1009.7,310.3,14.51,14.28,33.06
ARGAU-4,2/28/2004,0:06,-48.96,-66.03,1009.3,237.6,14.53,14.05,33.03
ARGAU-4,2/28/2004,0:16,-48.92,-66,1009.3,216.4,14.77,14.58,33.19
ARGAU-4,2/28/2004,0:26,-48.89,-65.97,1009.3,229.6,15.06,14.55,33.28
ARGAU-4,2/28/2004,0:35,-48.85,-65.94,1009.3,248.6,14.81,14.47,33.28
ARGAU-4,2/28/2004,0:45,-48.81,-65.92,1009.3,247.0,14.79,14.41,33.29
ARGAU-4,2/28/2004,0:56,-48.78,-65.9,1009.2,227.8,14.90,14.40,33.28
ARGAU-4,2/28/2004,1:16,-48.7,-65.85,1009.0,203.0,14.61,14.29,33.24
ARGAU-4,2/28/2004,1:26,-48.66,-65.82,1009.1,192.6,14.50,13.91,33.10
ARGAU-4,2/28/2004,1:36,-48.62,-65.8,1009.0,232.3,14.21,13.82,33.02
ARGAU-4,2/28/2004,1:46,-48.58,-65.77,1008.9,219.9,14.45,14.00,33.08
ARGAU-4,2/28/2004,1:56,-48.55,-65.75,1008.8,211.5,14.35,14.07,33.11
ARGAU-4,2/28/2004,2:06,-48.51,-65.72,1008.6,208.7,14.39,13.96,33.09
ARGAU-4,2/28/2004,2:26,-48.43,-65.67,1008.7,230.0,14.02,13.56,33.00
ARGAU-4,2/28/2004,2:36,-48.4,-65.65,1008.6,256.3,14.02,13.58,32.96
ARGAU-4,2/28/2004,2:46,-48.36,-65.62,1008.6,284.8,14.06,13.54,32.93
ARGAU-4,2/28/2004,2:56,-48.33,-65.6,1008.6,313.9,13.99,13.38,32.91
ARGAU-4,2/28/2004,3:07,-48.29,-65.57,1008.5,355.2,13.53,12.94,32.88
ARGAU-4,2/28/2004,3:17,-48.25,-65.54,1008.3,406.2,13.25,12.93,32.85
ARGAU-4,2/28/2004,3:37,-48.18,-65.5,1007.9,414.3,13.32,13.08,32.91
ARGAU-4,2/28/2004,3:47,-48.14,-65.48,1008.0,414.2,13.52,13.06,32.90
ARGAU-4,2/28/2004,3:57,-48.11,-65.46,1007.8,413.4,13.31,13.06,32.90
ARGAU-4,2/28/2004,4:07,-48.07,-65.44,1008.1,406.9,13.34,12.89,32.91
ARGAU-4,2/28/2004,4:17,-48.04,-65.42,1008.0,406.0,13.05,12.75,32.97
ARGAU-4,2/28/2004,4:27,-48,-65.4,1007.8,390.9,13.47,13.11,33.05
ARGAU-4,2/28/2004,4:46,-47.93,-65.35,1008.1,383.0,13.51,13.00,33.07
ARGAU-4,2/28/2004,4:56,-47.91,-65.31,1008.0,384.0,13.38,13.08,33.07
ARGAU-4,2/28/2004,5:06,-47.92,-65.25,1007.7,380.5,13.51,13.08,33.07
ARGAU-4,2/28/2004,5:16,-47.91,-65.19,1007.5,375.4,13.57,13.17,33.10
ARGAU-4,2/28/2004,5:27,-47.91,-65.13,1007.4,370.0,13.32,12.86,33.12
ARGAU-4,2/28/2004,5:37,-47.91,-65.07,1007.1,365.2,13.46,13.03,33.12
ARGAU-4,2/28/2004,5:57,-47.91,-64.94,1006.8,338.5,13.27,12.74,33.16
ARGAU-4,2/28/2004,6:07,-47.91,-64.88,1006.7,346.9,12.94,12.59,33.15
ARGAU-4,2/28/2004,6:17,-47.91,-64.82,1006.6,302.3,14.18,13.91,33.23
ARGAU-4,2/28/2004,6:27,-47.9,-64.76,1006.5,283.6,14.48,14.17,33.24
ARGAU-4,2/28/2004,6:37,-47.9,-64.7,1006.6,281.2,14.37,13.83,33.23
ARGAU-4,2/28/2004,6:47,-47.9,-64.63,1006.5,271.8,14.14,13.77,33.22
ARGAU-4,2/28/2004,7:33,-47.9,-64.34,1006.3,281.6,14.74,14.36,33.27
ARGAU-4,2/28/2004,7:43,-47.9,-64.28,1006.3,285.8,14.55,14.25,33.27
ARGAU-4,2/28/2004,7:53,-47.9,-64.22,1006.1,286.2,14.70,14.17,33.27
ARGAU-4,2/28/2004,8:42,-47.89,-63.91,1006.0,296.3,14.96,14.61,33.29
ARGAU-4,2/28/2004,8:52,-47.89,-63.84,1005.9,294.1,15.09,14.62,33.30
ARGAU-4,2/28/2004,9:02,-47.89,-63.78,1006.0,292.9,15.13,14.72,33.29
ARGAU-4,2/28/2004,9:12,-47.89,-63.71,1006.2,288.8,15.14,14.62,33.29
ARGAU-4,2/28/2004,9:22,-47.88,-63.65,1006.3,290.7,14.96,14.68,33.29
ARGAU-4,2/28/2004,9:32,-47.88,-63.59,1006.3,289.7,15.08,14.75,33.29
ARGAU-4,2/28/2004,9:52,-47.88,-63.45,1006.6,288.4,15.13,14.61,33.29
ARGAU-4,2/28/2004,10:02,-47.88,-63.39,1006.6,292.7,14.94,14.73,33.30
ARGAU-4,2/28/2004,10:12,-47.88,-63.33,1006.8,290.5,15.06,14.70,33.30
ARGAU-4,2/28/2004,10:22,-47.88,-63.26,1006.7,290.8,15.16,14.77,33.30
ARGAU-4,2/28/2004,10:33,-47.88,-63.2,1006.7,289.6,15.04,14.63,33.30
ARGAU-4,2/28/2004,10:43,-47.88,-63.14,1006.7,287.6,15.13,14.67,33.30
ARGAU-4,2/28/2004,11:03,-47.87,-63.01,1006.8,287.2,15.05,14.56,33.30
ARGAU-4,2/28/2004,11:13,-47.87,-62.94,1006.8,288.4,15.02,14.69,33.31
ARGAU-4,2/28/2004,11:23,-47.87,-62.88,1006.8,286.5,14.94,14.59,33.31
ARGAU-4,2/28/2004,11:33,-47.87,-62.81,1006.9,284.1,14.91,14.52,33.33
ARGAU-4,2/28/2004,11:43,-47.87,-62.75,1007.0,280.4,14.89,14.32,33.35
ARGAU-4,2/28/2004,11:53,-47.86,-62.68,1007.1,281.5,14.81,14.37,33.38
ARGAU-4,2/28/2004,12:13,-47.86,-62.56,1007.2,284.3,14.77,14.39,33.44
ARGAU-4,2/28/2004,12:23,-47.86,-62.49,1007.3,284.8,14.77,14.24,33.44
ARGAU-4,2/28/2004,12:33,-47.86,-62.43,1007.4,286.6,14.73,14.39,33.44
ARGAU-4,2/28/2004,12:43,-47.86,-62.37,1007.3,286.3,14.82,14.30,33.45
ARGAU-4,2/28/2004,12:53,-47.86,-62.31,1007.3,286.0,14.88,14.45,33.45
ARGAU-4,2/28/2004,13:03,-47.86,-62.24,1007.3,284.7,14.92,14.46,33.45
ARGAU-4,2/28/2004,13:49,-47.86,-61.95,1007.7,287.9,14.81,14.53,33.61
ARGAU-4,2/28/2004,13:59,-47.86,-61.89,1007.7,290.7,14.92,14.54,33.61
ARGAU-4,2/28/2004,14:09,-47.86,-61.83,1007.7,312.1,14.75,14.43,33.61
ARGAU-4,2/28/2004,14:19,-47.86,-61.76,1007.8,316.4,14.75,14.37,33.60
ARGAU-4,2/28/2004,14:29,-47.86,-61.7,1007.7,315.6,14.58,14.18,33.60
ARGAU-4,2/28/2004,14:39,-47.86,-61.64,1007.8,314.2,14.55,14.23,33.60
ARGAU-4,2/28/2004,14:59,-47.85,-61.51,1007.9,311.7,14.67,14.19,33.59
ARGAU-4,2/28/2004,15:09,-47.85,-61.45,1007.9,313.8,14.62,14.31,33.59
ARGAU-4,2/28/2004,15:19,-47.85,-61.39,1007.9,311.2,14.48,14.05,33.59
ARGAU-4,2/28/2004,15:39,-47.85,-61.26,1007.5,299.7,15.29,13.99,33.59
ARGAU-4,2/28/2004,15:49,-47.85,-61.2,1007.5,309.4,14.53,14.06,33.66
ARGAU-4,2/28/2004,16:09,-47.85,-61.07,1007.6,273.3,14.36,14.04,33.69
ARGAU-4,2/28/2004,16:19,-47.85,-61.01,1007.9,277.9,14.38,13.99,33.70
ARGAU-4,2/28/2004,16:29,-47.81,-60.99,1008.0,275.1,14.16,13.89,33.69
ARGAU-4,2/28/2004,16:40,-47.77,-60.99,1008.1,273.5,14.27,13.78,33.69
ARGAU-4,2/28/2004,16:50,-47.73,-60.99,1007.9,273.5,14.32,13.94,33.70
ARGAU-4,2/28/2004,17:00,-47.69,-60.99,1007.9,270.4,14.36,13.91,33.70
ARGAU-4,2/28/2004,17:20,-47.6,-61,1007.9,268.4,14.25,13.78,33.70
ARGAU-4,2/28/2004,17:29,-47.56,-61,1008.0,273.0,14.23,13.87,33.71
ARGAU-4,2/28/2004,17:39,-47.51,-61,1008.1,287.8,13.99,13.75,33.72
ARGAU-4,2/28/2004,17:49,-47.47,-60.99,1007.7,290.4,14.23,13.87,33.73
ARGAU-4,2/28/2004,17:59,-47.43,-60.99,1007.8,281.9,14.38,13.84,33.73
ARGAU-4,2/28/2004,18:09,-47.39,-60.99,1007.8,283.1,14.38,13.96,33.73
ARGAU-4,2/28/2004,18:29,-47.34,-60.93,1007.4,275.3,14.57,13.99,33.72
ARGAU-4,2/28/2004,18:40,-47.33,-60.87,1007.4,288.2,14.14,13.78,33.73
ARGAU-4,2/28/2004,18:50,-47.31,-60.82,1007.4,290.2,14.22,13.82,33.72
ARGAU-4,2/28/2004,19:00,-47.27,-60.79,1007.5,292.5,14.24,13.89,33.74
ARGAU-4,2/28/2004,19:10,-47.23,-60.78,1007.4,302.2,14.04,13.71,33.75
ARGAU-4,2/28/2004,19:20,-47.19,-60.77,1007.3,296.5,14.13,13.72,33.74
ARGAU-4,2/28/2004,20:36,-46.88,-60.78,1007.2,275.1,14.63,14.31,33.73
ARGAU-4,2/28/2004,20:46,-46.86,-60.82,1007.1,277.8,14.81,14.52,33.73
ARGAU-4,2/28/2004,20:56,-46.82,-60.85,1007.4,277.6,14.89,14.43,33.71
ARGAU-4,2/28/2004,21:06,-46.78,-60.85,1007.3,275.7,14.81,14.41,33.72
ARGAU-4,2/28/2004,21:16,-46.74,-60.85,1007.3,273.2,15.08,14.67,33.71
ARGAU-4,2/28/2004,21:26,-46.7,-60.85,1007.2,275.1,15.12,14.67,33.71
ARGAU-4,2/28/2004,21:45,-46.64,-60.84,1007.2,278.1,15.16,14.73,33.72
ARGAU-4,2/28/2004,21:55,-46.6,-60.83,1007.2,276.6,15.13,14.70,33.72
ARGAU-4,2/28/2004,22:25,-46.5,-60.83,1007.6,260.8,15.43,15.02,33.64
ARGAU-4,2/28/2004,22:36,-46.46,-60.83,1007.5,275.3,15.32,15.07,33.64
ARGAU-4,2/28/2004,22:56,-46.38,-60.84,1007.5,271.2,15.48,15.08,33.65
ARGAU-4,2/28/2004,23:06,-46.35,-60.86,1007.5,277.2,15.54,15.19,33.65
ARGAU-4,2/28/2004,23:16,-46.32,-60.87,1007.3,283.6,15.54,15.18,33.65
ARGAU-4,2/28/2004,23:26,-46.28,-60.86,1007.2,277.8,15.49,15.26,33.65
ARGAU-4,2/28/2004,23:35,-46.24,-60.85,1007.6,275.6,15.63,15.22,33.65
ARGAU-4,2/28/2004,23:45,-46.21,-60.83,1007.4,277.4,15.64,15.34,33.65
ARGAU-4,2/29/2004,0:15,-46.1,-60.8,1007.7,271.8,15.73,15.43,33.64
ARGAU-4,2/29/2004,0:26,-46.07,-60.78,1007.8,277.7,15.75,15.41,33.64
ARGAU-4,2/29/2004,0:36,-46.03,-60.76,1007.9,276.6,15.77,15.38,33.63
ARGAU-4,2/29/2004,3:26,-45.43,-60.66,1009.2,317.2,16.21,15.65,33.53
ARGAU-4,2/29/2004,3:45,-45.36,-60.61,1009.0,340.2,16.00,15.50,33.51
ARGAU-4,2/29/2004,3:55,-45.33,-60.58,1009.0,342.3,15.96,15.52,33.52
ARGAU-4,2/29/2004,4:05,-45.29,-60.55,1009.2,343.6,15.78,15.38,33.54
ARGAU-4,2/29/2004,4:15,-45.26,-60.52,1009.4,346.9,15.73,15.38,33.60
ARGAU-4,2/29/2004,4:35,-45.21,-60.48,1009.0,350.5,15.57,15.20,33.64
ARGAU-4,2/29/2004,6:34,-44.79,-60.11,1009.4,328.9,14.41,13.92,33.83
ARGAU-4,3/13/2004,12:33,-40.05,-61.6,1014.0,307.9,20.87,20.60,33.61
ARGAU-4,3/13/2004,12:43,-40.08,-61.61,1014.1,292.5,21.04,20.55,33.54
ARGAU-4,3/13/2004,12:53,-40.12,-61.62,1014.0,281.3,21.11,20.61,33.50
ARGAU-4,3/13/2004,13:03,-40.15,-61.62,1013.9,278.6,21.03,20.80,33.53
ARGAU-4,3/13/2004,13:13,-40.19,-61.63,1014.0,290.1,20.85,20.79,33.58
ARGAU-4,3/13/2004,13:23,-40.23,-61.63,1013.9,309.2,20.88,20.28,33.62
ARGAU-4,3/13/2004,13:43,-40.3,-61.65,1013.7,417.8,20.68,20.43,33.68
ARGAU-4,3/13/2004,13:53,-40.34,-61.65,1013.7,439.9,20.85,20.25,33.72
ARGAU-4,3/13/2004,14:03,-40.38,-61.66,1013.7,458.8,20.51,20.37,33.74
ARGAU-4,3/13/2004,14:13,-40.42,-61.66,1013.5,448.1,20.46,20.22,33.74
ARGAU-4,3/13/2004,14:23,-40.46,-61.67,1013.3,441.9,20.52,20.35,33.75
ARGAU-4,3/13/2004,14:33,-40.49,-61.68,1013.3,430.6,20.75,20.32,33.79
ARGAU-4,3/13/2004,14:53,-40.57,-61.69,1013.3,440.0,20.51,19.94,33.81
ARGAU-4,3/13/2004,15:03,-40.62,-61.7,1013.3,452.6,20.48,20.04,33.84
ARGAU-4,3/13/2004,15:13,-40.65,-61.71,1013.3,457.8,20.24,19.89,33.84
ARGAU-4,3/13/2004,15:23,-40.69,-61.71,1013.4,463.0,20.01,19.98,33.83
ARGAU-4,3/13/2004,15:33,-40.74,-61.72,1013.3,454.9,20.16,19.76,33.79
ARGAU-4,3/13/2004,15:43,-40.77,-61.73,1013.2,462.4,19.86,19.77,33.77
ARGAU-4,3/13/2004,16:03,-40.85,-61.74,1012.9,462.4,19.99,19.64,33.76
ARGAU-4,3/13/2004,16:13,-40.89,-61.75,1012.7,461.8,19.77,19.38,33.80
ARGAU-4,3/13/2004,16:23,-40.93,-61.75,1012.5,465.9,19.67,19.48,33.84
ARGAU-4,3/13/2004,16:34,-40.97,-61.76,1012.4,465.1,19.63,19.44,33.86
ARGAU-4,3/13/2004,17:14,-41.11,-61.7,1012.1,459.5,18.81,18.53,33.85
ARGAU-4,3/13/2004,17:24,-41.14,-61.68,1011.9,462.6,18.70,18.51,33.85
ARGAU-4,3/13/2004,17:34,-41.17,-61.65,1011.9,466.0,18.64,18.50,33.85
ARGAU-4,3/13/2004,17:44,-41.2,-61.63,1011.6,459.8,18.74,18.46,33.84
ARGAU-4,3/13/2004,18:24,-41.33,-61.53,1011.6,481.6,18.87,18.07,33.80
ARGAU-4,3/13/2004,18:34,-41.35,-61.5,1011.5,457.7,18.34,18.08,33.79
ARGAU-4,3/13/2004,18:44,-41.39,-61.48,1011.4,438.6,18.40,18.26,33.81
ARGAU-4,3/13/2004,18:54,-41.42,-61.45,1011.2,395.9,18.76,18.47,33.82
ARGAU-4,3/13/2004,19:04,-41.45,-61.43,1011.2,372.9,18.89,18.77,33.83
ARGAU-4,3/13/2004,19:14,-41.48,-61.4,1011.4,356.1,18.98,18.64,33.83
ARGAU-4,3/13/2004,20:00,-41.63,-61.28,1010.9,353.9,19.09,18.69,33.80
ARGAU-4,3/13/2004,20:10,-41.66,-61.26,1011.1,375.9,19.07,18.64,33.79
ARGAU-4,3/13/2004,20:20,-41.69,-61.23,1011.2,379.0,18.99,18.60,33.80
ARGAU-4,3/13/2004,21:10,-41.85,-61.1,1011.2,419.5,18.70,18.40,33.74
ARGAU-4,3/13/2004,21:20,-41.89,-61.08,1011.2,408.4,18.68,18.29,33.75
ARGAU-4,3/13/2004,21:30,-41.92,-61.05,1011.1,407.1,18.66,18.21,33.77
ARGAU-4,3/13/2004,21:40,-41.95,-61.03,1011.2,415.0,18.55,18.40,33.77
ARGAU-4,3/13/2004,21:50,-41.99,-61,1011.2,399.4,18.52,18.32,33.70
ARGAU-4,3/13/2004,22:00,-42.02,-60.98,1011.2,387.8,18.66,18.23,33.70
ARGAU-4,3/13/2004,22:20,-42.09,-60.93,1011.3,390.3,18.53,18.30,33.71
ARGAU-4,3/13/2004,22:30,-42.12,-60.9,1011.1,387.8,18.55,18.19,33.71
ARGAU-4,3/13/2004,22:40,-42.16,-60.88,1011.1,391.8,18.52,18.24,33.71
ARGAU-4,3/13/2004,23:30,-42.32,-60.75,1011.7,359.5,18.78,18.37,33.65
ARGAU-4,3/13/2004,23:40,-42.35,-60.72,1011.7,345.2,18.69,18.44,33.66
ARGAU-4,3/13/2004,23:50,-42.38,-60.69,1011.8,345.6,18.82,18.47,33.70
ARGAU-4,3/14/2004,0:00,-42.42,-60.66,1011.9,343.7,18.66,18.21,33.65
ARGAU-4,3/14/2004,0:10,-42.45,-60.64,1012.0,340.8,18.42,17.94,33.53
ARGAU-4,3/14/2004,0:20,-42.48,-60.61,1012.0,349.0,18.25,17.93,33.51
ARGAU-4,3/14/2004,0:40,-42.54,-60.55,1012.2,342.3,18.11,17.71,33.48
ARGAU-4,3/14/2004,0:50,-42.57,-60.53,1012.2,345.3,17.96,17.58,33.45
ARGAU-4,3/14/2004,1:00,-42.6,-60.5,1012.1,349.4,17.89,17.66,33.44
ARGAU-4,3/14/2004,1:10,-42.63,-60.47,1012.2,350.8,17.84,17.58,33.43
ARGAU-4,3/14/2004,1:20,-42.66,-60.45,1012.2,349.4,18.08,17.67,33.45
ARGAU-4,3/14/2004,1:31,-42.7,-60.42,1012.1,352.8,17.96,17.70,33.44
ARGAU-4,3/14/2004,1:51,-42.76,-60.37,1012.3,362.7,17.70,17.35,33.43
ARGAU-4,3/14/2004,2:01,-42.79,-60.34,1012.3,351.3,17.65,17.31,33.47
ARGAU-4,3/14/2004,2:11,-42.82,-60.32,1012.4,344.4,17.65,17.17,33.49
ARGAU-4,3/14/2004,2:21,-42.85,-60.29,1012.5,346.3,17.44,17.18,33.51
ARGAU-4,3/14/2004,2:31,-42.88,-60.27,1012.3,342.8,17.55,17.26,33.50
ARGAU-4,3/14/2004,2:41,-42.92,-60.24,1012.5,337.7,17.60,17.06,33.48
ARGAU-4,3/14/2004,3:27,-43.06,-60.11,1012.3,320.2,17.28,17.00,33.53
ARGAU-4,3/14/2004,3:37,-43.09,-60.09,1012.3,315.1,17.14,16.81,33.52
ARGAU-4,3/14/2004,3:47,-43.12,-60.06,1012.4,310.8,17.10,16.68,33.51
ARGAU-4,3/14/2004,3:57,-43.15,-60.03,1012.4,308.9,17.02,16.61,33.51
ARGAU-4,3/14/2004,4:07,-43.18,-60.01,1012.4,310.8,16.91,16.68,33.51
ARGAU-4,3/14/2004,4:17,-43.22,-59.98,1012.3,308.3,17.02,16.64,33.51
ARGAU-4,3/14/2004,4:37,-43.28,-59.93,1012.2,312.8,16.94,16.59,33.53
ARGAU-4,3/14/2004,4:47,-43.31,-59.9,1012.2,307.5,16.92,16.53,33.54
ARGAU-4,3/14/2004,4:57,-43.34,-59.88,1012.2,306.7,16.80,16.36,33.54
ARGAU-4,3/14/2004,5:07,-43.37,-59.85,1012.1,307.1,16.68,16.29,33.55
ARGAU-4,3/14/2004,5:17,-43.41,-59.82,1012.0,307.1,16.63,16.21,33.56
ARGAU-4,3/14/2004,5:27,-43.44,-59.8,1011.9,307.8,16.63,16.29,33.58
ARGAU-4,3/14/2004,5:47,-43.5,-59.75,1011.9,302.9,16.47,16.11,33.60
ARGAU-4,3/14/2004,5:57,-43.54,-59.72,1011.8,297.3,16.37,15.81,33.63
ARGAU-4,3/14/2004,6:37,-43.67,-59.61,1011.5,303.4,15.58,15.32,33.70
ARGAU-4,3/14/2004,6:57,-43.73,-59.56,1011.5,300.6,15.14,14.28,33.75
ARGAU-4,3/14/2004,7:07,-43.76,-59.53,1011.5,305.9,14.09,13.45,33.84
ARGAU-4,3/14/2004,7:17,-43.8,-59.51,1011.6,315.9,13.50,12.80,33.86
ARGAU-4,3/14/2004,7:27,-43.83,-59.48,1011.5,326.7,13.12,12.95,33.88
ARGAU-4,3/14/2004,7:38,-43.86,-59.46,1011.5,328.3,13.47,13.14,33.90
ARGAU-4,3/14/2004,7:48,-43.89,-59.43,1011.4,333.7,13.91,13.54,33.92
ARGAU-4,3/14/2004,8:08,-43.95,-59.39,1011.4,329.0,13.75,13.20,33.93
ARGAU-4,3/14/2004,8:48,-44.06,-59.42,1011.2,352.5,13.00,12.55,33.96
ARGAU-4,3/14/2004,8:58,-44.09,-59.45,1011.1,344.3,12.90,12.46,33.97
ARGAU-4,3/14/2004,9:18,-44.14,-59.5,1011.0,334.8,13.73,13.21,33.93
ARGAU-4,3/14/2004,9:28,-44.17,-59.52,1010.8,325.6,13.73,13.45,33.93
ARGAU-4,3/14/2004,9:37,-44.2,-59.55,1010.6,326.3,13.77,13.47,33.92
ARGAU-4,3/14/2004,9:48,-44.22,-59.58,1010.6,318.7,13.97,13.60,33.91
ARGAU-4,3/14/2004,9:58,-44.25,-59.6,1010.5,320.7,14.01,13.59,33.90
ARGAU-4,3/14/2004,10:08,-44.27,-59.63,1010.3,320.0,13.82,13.65,33.90
ARGAU-4,3/14/2004,10:54,-44.4,-59.74,1009.8,310.1,13.97,13.32,33.87
ARGAU-4,3/14/2004,11:04,-44.43,-59.77,1009.6,314.6,13.89,13.49,33.88
ARGAU-4,3/14/2004,11:14,-44.45,-59.8,1009.5,314.6,13.66,13.24,33.87
ARGAU-4,3/14/2004,11:24,-44.48,-59.83,1009.1,308.7,13.79,13.20,33.85
ARGAU-4,3/14/2004,11:34,-44.49,-59.86,1009.0,307.1,13.69,13.33,33.83
ARGAU-4,3/14/2004,11:44,-44.5,-59.9,1009.0,304.4,13.82,13.48,33.83
ARGAU-4,3/14/2004,12:04,-44.55,-59.95,1008.7,303.7,14.06,13.58,33.82
ARGAU-4,3/14/2004,12:14,-44.58,-59.98,1008.7,301.0,14.15,13.84,33.81
ARGAU-4,3/14/2004,12:24,-44.6,-60,1008.6,298.8,14.36,13.90,33.80
ARGAU-4,3/14/2004,12:34,-44.63,-60.03,1008.6,296.5,14.36,13.97,33.79
ARGAU-4,3/14/2004,12:44,-44.66,-60.06,1008.4,295.5,14.38,14.05,33.78
ARGAU-4,3/14/2004,12:54,-44.69,-60.1,1008.1,296.8,14.42,14.07,33.77
ARGAU-4,3/14/2004,13:14,-44.74,-60.17,1007.8,286.0,14.53,14.19,33.75
ARGAU-4,3/14/2004,13:24,-44.76,-60.21,1007.9,285.6,14.52,14.10,33.75
ARGAU-4,3/14/2004,13:35,-44.79,-60.25,1007.7,289.6,14.67,14.39,33.75
ARGAU-4,3/14/2004,13:45,-44.81,-60.28,1007.4,289.3,14.80,14.46,33.74
ARGAU-4,3/14/2004,13:55,-44.84,-60.32,1007.3,287.9,15.04,14.61,33.72
ARGAU-4,3/14/2004,14:05,-44.86,-60.35,1007.1,293.2,15.09,14.87,33.70
ARGAU-4,3/14/2004,14:25,-44.9,-60.41,1006.9,298.7,15.25,14.87,33.69
ARGAU-4,3/14/2004,14:35,-44.87,-60.41,1006.4,295.5,15.32,14.92,33.69
ARGAU-4,3/14/2004,14:45,-44.89,-60.42,1006.8,298.1,15.42,15.00,33.69
ARGAU-4,3/14/2004,14:55,-44.93,-60.45,1006.9,297.0,15.32,14.88,33.68
ARGAU-4,3/14/2004,15:05,-44.96,-60.47,1006.9,304.4,15.05,14.79,33.68
ARGAU-4,3/14/2004,15:15,-45,-60.48,1006.9,305.7,14.95,14.54,33.70
ARGAU-4,3/14/2004,15:34,-45.07,-60.48,1006.5,290.2,14.76,14.45,33.67
ARGAU-4,3/14/2004,15:44,-45.1,-60.49,1006.5,288.7,14.69,14.32,33.66
ARGAU-4,3/14/2004,15:54,-45.14,-60.51,1006.3,292.0,14.69,14.33,33.65
ARGAU-4,3/14/2004,16:04,-45.17,-60.53,1006.2,295.9,14.81,14.51,33.66
ARGAU-4,3/14/2004,18:12,-45.2,-60.6,1006.3,300.1,15.16,14.80,33.65
ARGAU-4,3/14/2004,19:11,-45.23,-60.59,1005.8,298.8,15.10,14.64,33.65